Weather in Samara

Russia / Jewish Autonomous Oblast     47°49′41″N   131°13′39″E
temp.,
°C
wind,
m/s
gust,
m/s
humid.,
%
clouds,
%
prec.,
mm/h
press.,
hPa
HPBL,
m
6 march, sat
sat601:00−21wnw515800 0.0 1033665
04:00−20wnw614810 0.0 1033553
07:00−20wnw511830 0.0 1034270
10:00−17wnw611751 0.0 1034877
13:00−12wnw69650 0.0 10331016
16:00−9w57630 0.0 10311218
19:00−12wsw47752 0.0 1030112
22:00−14w510771 0.0 1032174
7 march, sun
sun701:00−17wsw34840 0.0 103057
04:00−17sw348733 0.0 103074
07:00−17sw3488100 0.0 102876
10:00−15sw3585100 0.0 1027235
13:00−11ssw3480100 0.0 1025419
16:00−9ssw2374100 0.0 1023426
19:00−12sw118770 0.0 102321
22:00−12nw229778 0.1 102521
8 march, mon
mon801:00−13nw348845 0.0 102631
04:00−15wnw349023 0.0 102744
07:00−16wnw33880 0.0 102826
10:00−12w34830 0.0 1028133
13:00−7sw45810 0.0 1026354
16:00−4ssw46820 0.0 1023413
19:00−7s33900 0.0 102130
22:00−7ssw349117 0.0 102082
9 march, tue
tue901:00−7sw3888100 0.0 1017156
04:00−7ssw31089100 0.0 1014202
07:00−8sw41086100 0.0 1011231
10:00−6wsw3786100 0.0 1009308
13:00−1wsw588367 0.0 1008589
16:00+1w597763 0.2 10081036
19:00−2nw6138483 0.1 1010513
22:00−7nw8187992 0.1 1015756
10 march, wed
wed1001:00−7nw920760 0.0 1019693
04:00−7nw1019770 0.0 1021523
07:00−8nw817780 0.0 1025473
10:00−7nw712760 0.0 1026497
13:00−2nw47620 0.0 1026750
16:000w255630 0.0 10251016
19:00−4wsw346990 0.0 102432
22:00−5sw238394 0.0 102540